星链-11624 (STARLINK-11624)

导读

STARLINK-11624是美国SpaceX星链计划中的一颗卫星,于2025年2月27日发射升空。作为星链星座的组成部分,它旨在为全球提供低延迟、高速率的宽带互联网服务,尤其覆盖偏远地区与网络基础设施薄弱区域。该卫星延续星链系列设计,依托低轨部署优势,支撑全球卫星互联网组网,进一步拓展星链系统的服务覆盖范围与网络容量。

基本信息
目录编号:
63105
目录名称:
STARLINK-11624
国际标识:
2025-039B
轨道中心:
EARTH
卫星名称:
星链-11624
卫星全名:
星链-11624 (STARLINK-11624)
卫星状态:
在轨 (已飞行555 天)
发射日期:
2025-02-27 UTC
国别 :
美国 (US)
星等 :
--
轨道信息
数据来源 国际轨道数据
星历时间: 2026-09-04T09:20:15+0800
1天前
查看轨道信息
半长轴: 6734.393km
偏心率: 0.0002132
轨道倾角: 43.000°
近地点辐角 249.375°
升交点赤经 242.089°
平近点角 110.689°
近地点: 354.82km
远地点: 357.692km
周期: 91.666分钟
每日圈数: 15.709237
详细信息
固有亮度:
5
最大亮度:
2.5
卫星平台:
Starlink V1.0
覆盖范围:
全球
运营商:
太空探索技术公司
运营商所在国:
美国
制造商(研发单位):
太空探索技术公司
制造商所在国:
美国
使用方式:
暂无
卫星简介
Starlink 计划是 SpaceX 推出的全球卫星互联网项目,通过发射低轨道卫星,为全球尤其是偏远地区提供高速、低延迟的互联网服务。自 2019 年起,Starlink 已部署数千颗卫星,旨在缩小全球数字鸿沟,推动互联网普及。该项目还为军事、航空等行业提供通信支持,带来广泛经济效益。
2D轨道图
3D轨道图
轨道高度分析图
轨道倾角分析图
轨道综合分析图
查看轨道综合分析图
交会数据列表
事件ID 空间交会对象 最接近时刻(TCA) 交会距离 交会风险概率(CRP) 交会风险指数(CRI) 操作
CDM_260830-104204-773606-310521
2026-08-30T
10:42:29+0000
1.930 km
极远距离
2.667577E-6 低风险 0.44
CDM_260902-030406-174506-310521
2026-09-02T
03:04:08+0000
2.674 km
极远距离
1.476694E-6 低风险 0.38
CDM_260906-222806-283606-310521
2026-09-06T
22:28:53+0000
2.532 km
极远距离
1.01034E-6 低风险 0.35
CDM_260907-000006-283606-310521
2026-09-07T
00:00:24+0000
2.570 km
极远距离
9.866441E-7 极低风险 0.35